Regional Weather Roundup
Issued by NWS

Home | Current Version | Previous Version | Graphics & Text | Print | Product List | Glossary On
Versions: 1 2 3 4 5 6 7 8 9 10 11 12 13 14 15 16 17 18 19 20 21 22 23 24 25 26 27 28 29 30 31 32 33 34 35 36 37 38 39 40 41 42 43 44 45 46 47 48 49 50
000
ASUS43 KMKX 311811
RWRWI

WISCONSIN REGIONAL WEATHER ROUNDUP
NATIONAL WEATHER SERVICE MILWAUKEE/SULLIVAN WI
100 PM CDT WED AUG 31 2016

NOTE: "FAIR" INDICATES FEW OR NO CLOUDS BELOW 12,000 FEET WITH NO
SIGNIFICANT WEATHER AND/OR OBSTRUCTIONS TO VISIBILITY.

WIZ001-002-006>008-014>016-023>028-311900-
NORTHWEST WISCONSIN

CITY           SKY/WX    TMP DP  RH WIND       PRES   REMARKS
SUPERIOR ARPT  SUNNY     74  51  44 N7        30.19S
6HR MIN TEMP:  46; 6HR MAX TEMP:  74;

ASHLAND        PTSUNNY   72  56  57 NE8       30.19F
6HR MIN TEMP:  48; 6HR MAX TEMP:  74;

HAYWARD        MOSUNNY   71  50  47 N5        30.20F
6HR MIN TEMP:  46; 6HR MAX TEMP:  72;

SIREN          SUNNY     73  49  42 N5        30.21S
6HR MIN TEMP:  48; 6HR MAX TEMP:  73;

CUMBERLAND     SUNNY     70  50  49 N8        30.20F
RICE LAKE      MOSUNNY   73  51  45 N5        30.21F
6HR MIN TEMP:  50; 6HR MAX TEMP:  73;

CHETEK         NOT AVBL
LADYSMITH      MOSUNNY   72  52  49 NW8       30.21S
6HR MIN TEMP:  53; 6HR MAX TEMP:  74;

EAU CLAIRE     SUNNY     75  51  43 VRB6      30.17F
6HR MIN TEMP:  49; 6HR MAX TEMP:  76;

MENOMONIE      SUNNY     74  52  46 NW6       30.19S
6HR MIN TEMP:  53; 6HR MAX TEMP:  75;

NEW RICHMOND   SUNNY     74  51  44 N6        30.21S
6HR MIN TEMP:  51; 6HR MAX TEMP:  74;

OSCEOLA        SUNNY     73  53  49 N5        30.23F
6HR MIN TEMP:  51; 6HR MAX TEMP:  73;

$$

WIZ003>005-009-010-017-018-311900-
NORTH CENTRAL WISCONSIN

CITY           SKY/WX    TMP DP  RH WIND       PRES   REMARKS
MANITOWISH WTR NOT AVBL
ARBOR VITAE    MOSUNNY   72  55  54 N8G16     30.18F
6HR MIN TEMP:  52; 6HR MAX TEMP:  72;

WOODRUFF       MOSUNNY   72  55  54 N8G16     30.18F
6HR MIN TEMP:  52; 6HR MAX TEMP:  72;

RHINELANDER    PTSUNNY   69  53  56 N7        30.18F
6HR MIN TEMP:  52; 6HR MAX TEMP:  71;

EAGLE RIVER    PTSUNNY   69  51  52 NW12      30.17F
6HR MIN TEMP:  45; 6HR MAX TEMP:  71;

LAND O LAKES   CLOUDY    67  53  59 N8        30.19F
6HR MIN TEMP:  44; 6HR MAX TEMP:  69;

PHILLIPS       PTSUNNY   68  53  58 N7        30.19S
TOMAHAWK       MOSUNNY   68  52  58 N3        30.18S
6HR MIN TEMP:  41; 6HR MAX TEMP:  71;

MEDFORD        MOSUNNY   70  52  52 N9        30.18S
6HR MIN TEMP:  46; 6HR MAX TEMP:  71;

MERRILL        PTSUNNY   71  53  52 N5        30.17F
6HR MIN TEMP:  44; 6HR MAX TEMP:  72; 6HR PCP:  0.01;

$$

WIZ029-030-035-036-043>047-311900-
CENTRAL WISCONSIN

CITY           SKY/WX    TMP DP  RH WIND       PRES   REMARKS
WAUSAU         MOSUNNY   73  52  47 N9        30.15F
6HR MIN TEMP:  53; 6HR MAX TEMP:  74;

MOSINEE        MOSUNNY   72  54  53 NW14G20   30.17F
MARSHFIELD     MOSUNNY   76  52  43 N8        30.16F
6HR MIN TEMP:  53; 6HR MAX TEMP:  76;

STEVENS POINT  MOSUNNY   72  51  48 N7        30.16S
6HR MIN TEMP:  49; 6HR MAX TEMP:  72;

WAUPACA        SUNNY     78  49  36 N9        30.14S
6HR MIN TEMP:  55; 6HR MAX TEMP:  78;

WAUTOMA        SUNNY     75  52  44 N6        30.14S
6HR MIN TEMP:  51; 6HR MAX TEMP:  75;

WISC RAPIDS    SUNNY     77  52  41 N10       30.16F
6HR MIN TEMP:  54; 6HR MAX TEMP:  77;

CAMP DOUGLAS   MOSUNNY   75  55  50 NW6       30.14F
$$

WIZ011>013-019>022-031-037>040-048>050-311900-
NORTHEAST WISCONSIN

CITY           SKY/WX    TMP DP  RH WIND       PRES   REMARKS
ANTIGO         MOSUNNY   71  53  52 N10G21    30.17S
6HR MIN TEMP:  47; 6HR MAX TEMP:  71;

SHAWANO        PTSUNNY   76  54  46 N10       30.13F
6HR MIN TEMP:  55; 6HR MAX TEMP:  77;

OCONTO         NOT AVBL
STURGEON BAY   NOT AVBL
GREEN BAY      MOSUNNY   75  58  55 NW9       30.12
6HR MIN TEMP:  55; 6HR MAX TEMP:  75;

MANITOWOC      PTSUNNY   73  53  49 N12       30.12S
6HR MIN TEMP:  59; 6HR MAX TEMP:  73;

APPLETON       PTSUNNY   73  48  40 N10G18    30.12F
CLINTONVILLE   MOSUNNY   73  50  43 NW9       30.12F
OSHKOSH        MOSUNNY   75  54  47 NW12      30.13S
6HR MIN TEMP:  60; 6HR MAX TEMP:  75;

$$

WIZ032>034-041-042-053>061-311900-
SOUTHWEST WISCONSIN

CITY           SKY/WX    TMP DP  RH WIND       PRES   REMARKS
LA CROSSE      SUNNY     77  54  44 N8        30.16S
6HR MIN TEMP:  59; 6HR MAX TEMP:  77;

SPARTA         SUNNY     74  54  49 NW7       30.16F
6HR MIN TEMP:  48; 6HR MAX TEMP:  74;

VIROQUA        SUNNY     73  55  53 N6        30.17F
6HR MIN TEMP:  55; 6HR MAX TEMP:  73;

BOSCOBEL       SUNNY     79  53  40 N8        30.14F
6HR MIN TEMP:  56; 6HR MAX TEMP:  79;

PRAIRIE DU CHI SUNNY     75  52  44 N10G16    30.14F
6HR MIN TEMP:  58; 6HR MAX TEMP:  75;

PLATTEVILLE    SUNNY     73  59  60 N8        30.14F
6HR MIN TEMP:  60; 6HR MAX TEMP:  74;

$$

WIZ056-057-062-063-064-067-068-311900-
SOUTH CENTRAL WISCONSIN

CITY           SKY/WX    TMP DP  RH WIND       PRES   REMARKS
REEDSBURG      NOT AVBL
BARABOO/DELLS  SUNNY     73  48  41 N5        30.14F
6HR MIN TEMP:  56; 6HR MAX TEMP:  74;

LONE ROCK      SUNNY     76  55  48 N8        30.14F
6HR MIN TEMP:  58; 6HR MAX TEMP:  77;

MINERAL POINT  SUNNY     73  54  49 N10       30.15F
MADISON        MOSUNNY   75  55  49 N14G21    30.12F
6HR MIN TEMP:  62; 6HR MAX TEMP:  75;

MIDDLETON      SUNNY     75  55  49 N9        30.13F
6HR MIN TEMP:  64; 6HR MAX TEMP:  75;

WATERTOWN      SUNNY     73  56  53 N13       30.11F
6HR MIN TEMP:  62; 6HR MAX TEMP:  73;

MONROE         SUNNY     72  54  53 N10       30.13S
JANESVILLE     MOSUNNY   75  55  50 VRB9      30.11F
$$

WIZ051-052-058>065-066-070>072-311900-
SOUTHEAST WISCONSIN

CITY           SKY/WX    TMP DP  RH WIND       PRES   REMARKS
MILWAUKEE      MOSUNNY   74  57  55 NE10      30.11S
6HR MIN TEMP:  66; 6HR MAX TEMP:  74;

WAUKESHA       MOSUNNY   73  54  49 N9        30.12F
MILWAUKEE/TIMM MOSUNNY   73  54  49 NE12      30.11F
RACINE         SUNNY     73  60  63 N14       30.12S
6HR MIN TEMP:  64; 6HR MAX TEMP:  73;

BURLINGTON     MOSUNNY   74  54  50 NE9G16    30.10F
6HR MIN TEMP:  60; 6HR MAX TEMP:  74;

KENOSHA        MOSUNNY   74  59  59 N10       30.11S
6HR MIN TEMP:  63; 6HR MAX TEMP:  74;

FOND DU LAC    MOSUNNY   74  55  51 NE9       30.13S
6HR MIN TEMP:  60; 6HR MAX TEMP:  75;

SHEBOYGAN      MOSUNNY   75  54  47 NE10      30.11F
6HR MIN TEMP:  59; 6HR MAX TEMP:  76;

WEST BEND      SUNNY     73  52  46 N6        30.11S
JUNEAU         SUNNY     73  53  50 N9G16     30.14S
6HR MIN TEMP:  60; 6HR MAX TEMP:  73;

$$

LSZ147-162-311900-
LAKE SUPERIOR

STATION/POSITION TIME  TEMP    WIND        PRES    WAVE
                       AIR SEA DIR/SP/G            HT/PER
                 (UTC) (F)     (DEG/KT/KT) (MB)    (FT/S)
W MID LAKE BUOY  1750   65 67  320/  6/  8 1021.7F   1/ 3
DEVILS ISLAND    1800   65     330/  4/  4 1022.6F
PORT WING        1740   67     310/  3/  4 1022.7F
SAXON HARBOR     1740   69     360/  4/  5 1022.4S
$$

LMZ867-665-643>646-311900-
LAKE MICHIGAN

STATION/POSITION TIME  TEMP    WIND        PRES    WAVE
                       AIR SEA DIR/SP/G            HT/PER
                 (UTC) (F)     (DEG/KT/KT) (MB)    (FT/S)
CHAMBERS ISLAND  1600   71      10/  2/  3 1020.3R
S GREEN BAY BUOY 1600   66 72  340/  6/  8 1020.0
N MID LAKE BUOY  1750   69 71  310/ 10/ 12 1018.5F   1/ 4
NORTHPORT PIER   1700   69     320/  7/  9 1019.6F
SISTER BAY       1737   75     330/  6/  7   N/A
ALGOMA LAKESHORE 1615          320/  8/  9   N/A
KEWAUNEE LAKESHO 1700   71     C1F1C2F2C3F3C4F4C5F5C6F6C7F7C8M1C9M2Ca!



USA.gov is the U.S. government's official web portal to all federal, state and local government web resources and services.